"Time","Temp","Dewpoint","Humidity","Pressure","Direction","Speed","Gust","Precip","PrecipRate"
"00:04:56","49.7","41.7","74","29.73","321","1.5","3.6","0.00","0.00"
"00:09:56","49.8","41.7","73.8","29.73","324","0.2","2.4","0.00","0.00"
"00:14:57","49.7","41.6","73.7","29.73","286","0.8","3.6","0.00","0.00"
"00:19:56","49.7","41.7","74","29.73","287","0.2","2.4","0.00","0.00"
"00:24:57","49.6","41.7","74","29.73","277","1","3.6","0.00","0.00"
"00:29:59","49.6","41.7","74","29.73","263","1.1","3.6","0.00","0.00"
"00:34:57","49.5","41.6","74.2","29.73","258","1.3","4.8","0.00","0.00"
"00:39:56","49.4","41.7","74.7","29.73","260","0.5","3.5","0.00","0.00"
"00:44:58","49.2","41.6","75","29.73","255","1","3.6","0.00","0.00"
"00:49:55","49.1","41.5","75","29.73","254","0.4","2.4","0.00","0.00"
"00:54:57","49.1","41.5","75","29.73","254","0","1.2","0.00","0.00"
"00:59:57","49","41.4","75","29.74","12","0.4","4.8","0.00","0.00"
"01:04:56","48.9","41.4","75.2","29.74","1","0.2","2.4","0.00","0.00"
"01:09:56","48.7","41.8","76.9","29.74","360","0","0","0.00","0.00"
"01:14:58","48.2","41.7","78.2","29.74","360","0","0","0.00","0.00"
"01:19:57","47.6","41.5","79.4","29.74","360","0","0","0.00","0.00"
"01:24:58","47.2","41.5","80.5","29.74","360","0","0","0.00","0.00"
"01:29:56","46.9","41.4","81.1","29.74","360","0","0","0.00","0.00"
"01:34:58","46.6","41.6","82.6","29.74","360","0","0","0.00","0.00"
"01:39:57","46.4","41.6","83.4","29.74","360","0","0","0.00","0.00"
"01:44:58","46.3","41.6","83.9","29.74","360","0","1.2","0.00","0.00"
"01:49:57","46.3","41.7","84","29.74","360","0","0","0.00","0.00"
"01:54:59","46.2","41.8","84.7","29.74","360","0","0","0.00","0.00"
"01:59:57","46.2","41.6","84","29.74","360","0.3","2.4","0.00","0.00"
"02:04:58","46.3","41.4","83","29.74","356","0.5","3.6","0.00","0.00"
"02:09:58","46.5","41.4","82.1","29.74","355","0.6","2.4","0.00","0.00"
"02:14:57","46.8","41.5","81.4","29.74","355","0.3","2.4","0.00","0.00"
"02:19:59","47","41.5","81","29.74","355","0","1.2","0.00","0.00"
"02:24:57","47","41.5","81","29.74","355","0.1","2.4","0.00","0.00"
"02:29:59","46.6","41.4","82","29.74","355","0.4","2.4","0.00","0.00"
"02:34:56","46.3","41.5","83.5","29.74","355","0","0","0.00","0.00"
"02:39:59","46","41.7","84.8","29.74","355","0","0","0.00","0.00"
"02:44:57","45.9","41.8","85.6","29.75","355","0","0","0.00","0.00"
"02:49:59","45.7","41.8","86","29.75","355","0","0","0.00","0.00"
"02:54:57","45.6","41.7","86","29.75","355","0","0","0.00","0.00"
"02:59:59","45.5","41.6","86.2","29.75","355","0","0","0.00","0.00"
"03:04:57","45.3","41.8","87","29.74","355","0","0","0.00","0.00"
"03:09:57","45.2","41.6","87","29.74","355","0","0","0.00","0.00"
"03:14:56","45.2","41.7","87.5","29.74","355","0","0","0.00","0.00"
"03:19:59","45.1","41.8","87.8","29.74","355","0","1.2","0.00","0.00"
"03:24:56","45.2","41.9","88","29.74","355","0","1.2","0.00","0.00"
"03:29:59","45.2","41.9","88","29.74","355","0","1.2","0.00","0.00"
"03:34:56","45.1","41.8","88","29.73","355","0","0","0.00","0.00"
"03:39:59","44.9","41.6","88","29.73","355","0","0","0.00","0.00"
"03:44:56","44.7","41.4","88","29.73","355","0","0","0.00","0.00"
"03:49:58","44.5","41.2","88","29.73","355","0","0","0.00","0.00"
"03:54:57","44.3","41.2","88.6","29.73","355","0","0","0.00","0.00"
"03:59:57","44.1","41.1","88.8","29.73","355","0","0","0.00","0.00"
"04:04:56","44","41","89","29.73","355","0","0","0.00","0.00"
"04:09:57","43.9","40.9","89","29.73","355","0","0","0.00","0.00"
"04:14:59","43.8","40.8","89","29.73","355","0","0","0.00","0.00"
"04:19:57","43.6","40.6","89","29.72","355","0","0","0.00","0.00"
"04:24:57","43.4","40.4","89","29.72","355","0","0","0.00","0.00"
"04:29:59","43.2","40.3","89.3","29.73","355","0","0","0.00","0.00"
"04:34:57","43","40.3","90","29.73","355","0","0","0.00","0.00"
"04:39:56","42.9","40.2","90","29.73","355","0","0","0.00","0.00"
"04:44:57","42.8","40.4","91","29.73","355","0","0","0.00","0.00"
"04:49:59","42.7","40.3","91","29.73","355","0","0","0.00","0.00"
"04:54:57","42.6","40.2","91","29.73","355","0","0","0.00","0.00"
"04:59:58","42.4","40","91","29.73","355","0","0","0.00","0.00"
"05:04:59","42.2","39.8","91","29.73","355","0","0","0.00","0.00"
"05:09:56","42","39.7","91.4","29.73","355","0","0","0.00","0.00"
"05:14:58","42","39.8","92","29.73","355","0","0","0.00","0.00"
"05:19:56","41.9","39.7","92","29.72","355","0","0","0.00","0.00"
"05:24:58","41.9","39.7","92","29.72","355","0","0","0.00","0.00"
"05:29:56","41.8","39.6","92","29.72","355","0","0","0.00","0.00"
"05:34:57","41.8","39.6","92","29.72","355","0","0","0.00","0.00"
"05:39:56","41.7","39.5","92","29.72","355","0","0","0.00","0.00"
"05:44:57","41.5","39.3","92","29.72","355","0","0","0.00","0.00"
"05:49:59","41.6","39.6","92.7","29.72","355","0.1","2.4","0.00","0.00"
"05:54:56","42","40.2","93.3","29.72","355","0.5","3.6","0.00","0.00"
"05:59:58","42.4","40.8","94","29.72","355","0.1","2.3","0.00","0.00"
"06:04:56","42.5","40.6","93","29.72","329","0.4","2.4","0.00","0.00"
"06:09:57","42.7","40.9","93.2","29.72","291","0.8","3.6","0.00","0.00"
"06:14:59","43.3","41.4","93.3","29.72","301","0.8","4.8","0.00","0.00"
"06:19:58","43.7","41.7","92.6","29.72","323","0.9","4.6","0.00","0.00"
"06:24:59","43.9","41.7","92","29.72","289","1.1","4.8","0.00","0.00"
"06:29:56","44.3","41.8","91","29.72","292","1.2","4.6","0.00","0.00"
"06:34:56","44.6","42","90.7","29.72","339","1.6","6","0.00","0.00"
"06:39:57","44.9","42.1","90","29.72","327","1.4","4.8","0.00","0.00"
"06:44:58","45.1","42.2","89.1","29.74","325","0.1","3.5","0.00","0.00"
"06:49:59","45.2","42.1","88.6","29.74","325","0.3","1.2","0.00","0.00"
"06:54:56","45.1","41.9","88.5","29.74","325","0.5","2.4","0.00","0.00"
"06:59:57","44.8","41.5","88","29.74","325","0","1.2","0.00","0.00"
"07:04:57","44.7","41.7","89","29.74","298","0.1","1.2","0.00","0.00"
"07:09:58","44.7","41.7","89","29.74","298","0","1.2","0.00","0.00"
"07:14:59","44.6","41.6","89","29.75","298","0","0","0.00","0.00"
"07:19:57","44.6","41.6","89","29.75","298","0","0","0.00","0.00"
"07:24:58","44.4","41.4","89","29.75","298","0","0","0.00","0.00"
"07:29:59","44.3","41.3","89","29.75","298","0","0","0.00","0.00"
"07:34:57","44.2","41.4","89.8","29.75","298","0","0","0.00","0.00"
"07:39:59","44.1","41.4","90","29.75","298","0","0","0.00","0.00"
"07:44:56","44.1","41.4","90","29.75","298","0","0","0.00","0.00"
"07:49:57","44","41.3","90","29.75","298","0","0","0.00","0.00"
"07:54:59","44","41.3","90","29.75","298","0","0","0.00","0.00"
"07:59:57","43.9","41.2","90","29.76","298","0","0","0.00","0.00"
"08:04:58","43.9","41.3","90.4","29.76","298","0","0","0.00","0.00"
"08:09:59","44.1","41.6","91","29.76","298","0","0","0.00","0.00"
"08:14:58","44.5","42","90.8","29.76","298","0.5","2.4","0.00","0.00"
"08:19:59","45","42.2","90","29.76","298","0.5","2.4","0.00","0.00"
"08:24:59","45.5","42.6","89.7","29.76","320","1.1","4.8","0.00","0.00"
"08:29:56","46.3","42.8","87.6","29.76","316","2.2","6","0.00","0.00"
"08:34:56","47.2","43.2","86","29.76","338","3.3","10.8","0.00","0.00"
"08:39:57","48.4","43.6","83.3","29.76","332","3.5","10.8","0.00","0.00"
"08:44:58","49.3","44","81.8","29.76","342","2","8.4","0.00","0.00"
"08:49:59","50.1","44.2","80.1","29.76","339","1.8","10.8","0.00","0.00"
"08:54:56","50.7","44.1","78","29.76","342","3.5","10.4","0.00","0.00"
"08:59:57","51.2","44.3","77.3","29.76","341","2.6","7.2","0.00","0.00"
"09:04:57","51.7","44.1","75.4","29.76","299","3.5","8.4","0.00","0.00"
"09:09:57","52.2","44.1","73.7","29.76","283","2.1","4.8","0.00","0.00"
"09:14:59","52.9","44.1","72","29.76","343","3.7","10.8","0.00","0.00"
"09:19:56","52.9","43.7","70.8","29.76","350","4.2","13.2","0.00","0.00"
"09:24:56","53.5","44.7","71.9","29.76","295","2.3","10.8","0.00","0.00"
"09:29:56","53.4","43.5","68.9","29.77","307","4.9","13.2","0.00","0.00"
"09:34:56","53.3","43.3","68.6","29.77","315","4.8","12","0.00","0.00"
"09:39:57","53.3","43","68","29.77","333","7.7","24","0.00","0.00"
"09:44:57","53.1","42.7","67.8","29.77","333","9.7","24.2","0.00","0.00"
"09:49:57","53.4","43.2","68.3","29.77","337","5.4","12.7","0.00","0.00"
"09:54:58","53.9","43.2","66.8","29.77","332","6.5","24.2","0.00","0.00"
"09:59:56","54.4","43.5","66.5","29.77","302","4.5","15","0.00","0.00"
"10:04:56","54.6","43.1","65.1","29.77","283","5.7","15","0.00","0.00"
"10:09:56","54.5","43.1","65.3","29.77","305","5.7","17.3","0.00","0.00"
"10:14:58","54.8","43.4","65.4","29.77","331","4.9","16.1","0.00","0.00"
"10:19:59","54.3","42.9","65.2","29.77","311","5.6","16.1","0.00","0.00"
"10:24:56","54.4","43.3","65.9","29.77","301","5","17.3","0.00","0.00"
"10:29:57","54.3","42.7","64.7","29.77","326","6.1","16.1","0.00","0.00"
"10:34:58","54.5","43.3","65.8","29.77","326","4.3","15","0.00","0.00"
"10:39:56","55.1","43.6","65.1","29.77","310","4.9","15","0.00","0.00"
"10:44:57","55.2","43","63.5","29.77","296","7.3","20.7","0.00","0.00"
"10:49:59","55.2","42.7","62.8","29.77","327","8.1","16.1","0.00","0.00"
"10:54:56","56.1","43.6","62.8","29.77","313","4.6","15.6","0.00","0.00"
"10:59:57","57","43.7","61.2","29.77","305","4","13.2","0.00","0.00"
"11:04:58","56.5","43.4","61.5","29.77","289","5.1","12","0.00","0.00"
"11:09:58","56.4","43.7","62.4","29.77","341","5.4","14.4","0.00","0.00"
"11:14:56","55.9","42.5","60.7","29.78","340","6.9","16.1","0.00","0.00"
"11:19:57","56.6","43.6","61.6","29.78","344","5.2","15","0.00","0.00"
"11:24:58","56.6","43.4","61.1","29.78","254","4","13.2","0.00","0.00"
"11:29:56","57.9","44.5","60.8","29.78","324","4.6","12.7","0.00","0.00"
"11:34:57","57.7","43.6","59.4","29.77","331","4.7","13.2","0.00","0.00"
"11:39:56","57.7","44.3","61","29.77","296","5.4","16.1","0.00","0.00"
"11:44:57","59.1","44.6","58.7","29.77","302","4.4","14.4","0.00","0.00"
"11:49:59","58.7","43.9","57.9","29.77","331","5.3","17.3","0.00","0.00"
"11:54:56","57.8","43.5","58.9","29.77","325","4.1","10.8","0.00","0.00"
"11:59:58","57.4","43.4","59.6","29.77","297","4.3","9.6","0.00","0.00"
"12:04:59","58.1","44.6","60.7","29.77","299","4.7","13.2","0.00","0.00"
"12:09:59","58.4","43.7","58.2","29.77","288","6","15","0.00","0.00"
"12:14:57","58.8","44.5","59","29.77","315","4.5","12","0.00","0.00"
"12:19:58","59.7","45","58.2","29.77","298","3.3","8.1","0.00","0.00"
"12:24:56","59.7","44.5","57.2","29.77","315","5.7","18.4","0.00","0.00"
"12:29:58","59.6","44.2","56.7","29.77","309","4.3","12","0.00","0.00"
"12:34:59","60","45.4","58.5","29.77","299","6.3","21.9","0.00","0.00"
"12:39:58","60.5","45","56.5","29.77","319","5.3","21.9","0.00","0.00"
"12:44:59","61","45.7","57.1","29.77","341","3.3","14.4","0.00","0.00"
"12:49:57","60.1","44.3","55.9","29.77","341","5.9","15","0.00","0.00"
"12:54:58","59.2","43.9","57","29.77","299","4.7","12","0.00","0.00"
"12:59:56","59","44","57.6","29.77","328","5.7","12","0.00","0.00"
"13:04:57","58.9","44.6","59","29.76","282","4.2","13.2","0.00","0.00"
"13:09:57","59","44.8","59.2","29.76","336","5","12.7","0.00","0.00"
"13:14:56","59.1","44.9","59.4","29.76","338","4.1","12","0.00","0.00"
"13:19:56","59.2","44.9","59","29.76","337","4","10.8","0.00","0.00"
"13:24:56","58.7","43.7","57.4","29.76","343","7.7","18.4","0.00","0.00"
"13:29:57","58.5","43.8","58.1","29.76","335","5.5","12","0.00","0.00"
"13:34:58","58.8","44.2","58.3","29.76","299","4.8","12","0.00","0.00"
"13:39:57","59.9","45.4","58.8","29.76","332","5.8","14.4","0.00","0.00"
"13:44:58","59.4","44.3","57.3","29.76","342","5.7","15","0.00","0.00"
"13:49:57","59.2","44.7","58.7","29.75","1","5.7","18.4","0.00","0.00"
"13:54:58","59.6","45.7","60.1","29.75","305","3.4","12","0.00","0.00"
"13:59:56","59.5","45","58.7","29.75","319","5.3","18.4","0.00","0.00"
"14:04:57","59.4","45.1","59.2","29.75","37","5.6","15","0.00","0.00"
"14:09:57","59","44.7","59","29.75","53","6.2","16.1","0.00","0.00"
"14:14:59","59","44.6","58.9","29.75","346","6.8","14.4","0.00","0.00"
"14:19:57","58.7","44.7","59.8","29.75","336","5.1","13.2","0.00","0.00"
"14:24:59","58.9","45.4","60.7","29.75","294","3.2","10.8","0.00","0.00"
"14:29:56","59.2","45.4","60.2","29.75","278","4.1","12","0.00","0.00"
"14:34:58","59.4","45.3","59.5","29.75","347","6.4","18","0.00","0.00"
"14:39:56","59.6","45.1","58.5","29.75","328","4.9","18.4","0.00","0.00"
"14:44:58","59.6","44.8","58","29.75","318","5.1","12","0.00","0.00"
"14:49:56","61.1","46.3","58.3","29.74","295","4.3","12","0.00","0.00"
"14:54:57","62.2","46.3","55.9","29.74","322","3.6","8.4","0.00","0.00"
"14:59:59","62.9","46.5","55","29.74","306","3.5","10.8","0.00","0.00"
"15:04:59","62","45.1","53.8","29.74","303","5.2","16.1","0.00","0.00"
"15:09:56","61.1","44.9","55.2","29.74","310","5.5","13.2","0.00","0.00"
"15:14:58","60.7","44.8","55.9","29.75","336","7.1","20.7","0.00","0.00"
"15:19:56","60.7","44.7","55.7","29.75","340","6.4","18.4","0.00","0.00"
"15:24:58","61","45.6","57","29.75","332","4.3","13.2","0.00","0.00"
"15:29:55","62.1","46.1","55.6","29.75","273","4.3","10.4","0.00","0.00"
"15:34:57","62.8","45.9","54","29.75","248","3.4","8.4","0.00","0.00"
"15:39:56","62","44.8","53.3","29.75","310","4","8.4","0.00","0.00"
"15:44:57","61.6","45","54.3","29.75","333","5.9","15","0.00","0.00"
"15:49:56","60.7","44.2","54.7","29.75","331","5.8","16.1","0.00","0.00"
"15:54:57","60.5","45.2","56.9","29.75","301","2.4","8.4","0.00","0.00"
"15:59:59","60.4","44.9","56.5","29.75","311","5.5","18.4","0.00","0.00"
"16:04:56","60","44.5","56.5","29.75","323","5.1","12.7","0.00","0.00"
"16:09:56","59.8","44.3","56.5","29.75","336","4.8","12","0.00","0.00"
"16:14:58","59.6","44.4","57.1","29.75","299","5.4","13.2","0.00","0.00"
"16:19:56","59.6","44.3","57","29.75","288","4.3","13.2","0.00","0.00"
"16:24:57","59.4","44.4","57.4","29.75","309","3.1","10.4","0.00","0.00"
"16:29:59","59.4","44.4","57.4","29.76","314","4.3","10.8","0.00","0.00"
"16:34:57","59.4","44.7","58.1","29.76","311","3.7","13.2","0.00","0.00"
"16:39:56","59.5","44.7","58","29.76","256","3.6","10.8","0.00","0.00"
"16:44:57","59.6","45.1","58.7","29.76","309","3.4","10.8","0.00","0.00"
"16:49:59","59.6","44.8","58","29.75","326","4.9","14.4","0.00","0.00"
"16:54:56","59.6","44.9","58.3","29.75","330","5","13.2","0.00","0.00"
"16:59:58","59.8","44.8","57.5","29.75","325","5","10.8","0.00","0.00"
"17:04:59","60","45.1","57.9","29.75","336","4.1","9.6","0.00","0.00"
"17:09:59","60.1","45.6","58.7","29.75","337","3.5","10.8","0.00","0.00"
"17:14:58","60.5","45.9","58.7","29.76","306","2.4","7.2","0.00","0.00"
"17:19:56","60.7","45.4","57","29.76","319","4.6","12","0.00","0.00"
"17:24:58","60.4","45.4","57.7","29.76","340","4.9","12","0.00","0.00"
"17:29:56","60.3","45.3","57.7","29.76","340","6.9","17.3","0.00","0.00"
"17:34:57","60","45","57.7","29.76","329","6","15","0.00","0.00"
"17:39:56","59.7","45.4","59.2","29.76","316","4.8","11.5","0.00","0.00"
"17:44:57","59.5","45.2","59.2","29.76","314","3","8.1","0.00","0.00"
"17:49:59","59.1","45.2","59.9","29.76","347","4.6","15","0.00","0.00"
"17:54:57","58.8","45.1","60.5","29.76","296","2.2","12","0.00","0.00"
"17:59:58","58.5","44.8","60.3","29.77","330","4.2","10.8","0.00","0.00"
"18:04:59","58.3","44.9","61","29.77","343","3.9","10.8","0.00","0.00"
"18:09:59","58.2","45.1","61.8","29.77","343","3.4","10.8","0.00","0.00"
"18:14:58","58","45","61.8","29.77","304","4.8","10.8","0.00","0.00"
"18:19:57","57.8","45.1","62.4","29.77","285","3.1","16.1","0.00","0.00"
"18:24:58","57.7","45.1","62.8","29.77","312","4.5","9.6","0.00","0.00"
"18:29:56","57.5","44.9","62.8","29.77","338","4.3","8.4","0.00","0.00"
"18:34:58","57.4","44.9","63","29.77","329","4.1","15","0.00","0.00"
"18:39:57","57.1","44.8","63.5","29.77","317","3.6","9.6","0.00","0.00"
"18:44:59","56.9","44.8","64","29.78","300","2.9","6","0.00","0.00"
"18:49:57","56.6","44.6","64","29.78","325","4.2","10.8","0.00","0.00"
"18:54:59","56.4","44.8","64.9","29.78","332","2.5","7.2","0.00","0.00"
"18:59:58","56.1","44.6","65.2","29.79","326","4.1","8.4","0.00","0.00"
"19:04:59","55.9","44.5","65.5","29.79","342","3.8","8.4","0.00","0.00"
"19:09:59","55.7","44.5","66","29.79","331","2.4","12","0.00","0.00"
"19:14:58","55.5","44.4","66.2","29.79","339","3.2","14.4","0.00","0.00"
"19:19:57","55.3","44.4","66.6","29.79","334","3.5","15","0.00","0.00"
"19:24:59","55.2","44.4","67.2","29.79","333","3.8","13.2","0.00","0.00"
"19:29:57","55.1","44.3","67","29.80","337","3.4","12.7","0.00","0.00"
"19:34:59","55","44.3","67.3","29.80","313","3.1","7.2","0.00","0.00"
"19:39:59","54.8","44.4","68","29.80","353","2.2","6","0.00","0.00"
"19:44:57","54.6","44.6","69","29.80","338","1.8","6","0.00","0.00"
"19:49:59","54.4","44.4","69","29.80","341","2.4","7.2","0.00","0.00"
"19:54:58","54.2","44.6","69.9","29.80","348","1","6.9","0.00","0.00"
"19:59:56","54","44.5","70.2","29.80","283","1.9","6","0.00","0.00"
"20:04:57","53.9","44.7","71","29.80","303","2","6","0.00","0.00"
"20:09:57","53.7","44.5","71.2","29.80","288","1.7","4.8","0.00","0.00"
"20:14:59","53.6","44.6","71.5","29.80","314","3.3","7.2","0.00","0.00"
"20:19:58","53.8","44.7","71.3","29.80","329","2.2","4.8","0.00","0.00"
"20:24:56","53.8","44.8","71.7","29.80","348","1.9","4.8","0.00","0.00"
"20:29:58","53.7","44.9","72","29.81","164","1.2","3.6","0.00","0.00"
"20:34:56","53.6","44.8","72","29.81","221","1.5","3.6","0.00","0.00"
"20:39:56","53.5","45","72.7","29.81","246","0.7","4.8","0.00","0.00"
"20:44:58","53.5","45.1","73","29.81","291","2","12","0.00","0.00"
"20:49:57","53.5","45.1","73","29.81","306","2.3","11.5","0.00","0.00"
"20:54:59","53.6","45","72.4","29.81","270","2.6","6","0.00","0.00"
"20:59:57","53.8","45","72","29.82","311","3.5","14.4","0.00","0.00"
"21:04:59","54","45.2","72","29.82","301","3.3","15","0.00","0.00"
"21:09:58","54.2","45","71.2","29.82","310","3.6","13.2","0.00","0.00"
"21:14:57","54.2","45.2","71.5","29.83","307","2.6","8.4","0.00","0.00"
"21:19:56","54.2","45","71","29.83","341","3.4","7.2","0.00","0.00"
"21:24:58","54.3","45.1","71","29.83","298","3.7","15","0.00","0.00"
"21:29:57","54.4","45","70.5","29.83","307","4","12","0.00","0.00"
"21:34:59","54.5","44.9","70","29.83","322","4.2","12","0.00","0.00"
"21:39:58","54.5","45","70.2","29.83","306","3.1","8.1","0.00","0.00"
"21:44:57","54.5","45","70.4","29.84","311","3.4","7.2","0.00","0.00"
"21:49:56","54.5","45.1","70.5","29.84","317","3.6","12","0.00","0.00"
"21:54:58","54.4","45.6","72","29.84","335","3.8","11.5","0.00","0.00"
"21:59:56","54.2","46","74","29.84","334","3.2","6","0.00","0.00"
"22:04:58","53.7","46.2","75.6","29.84","319","2","6","0.00","0.00"
"22:09:58","53.3","46.1","76.4","29.84","321","2.9","10.8","0.00","0.00"
"22:14:57","53.1","46.2","77.4","29.84","323","1.5","4.8","0.00","0.00"
"22:19:56","53","46","77.1","29.84","301","2.5","8.4","0.00","0.00"
"22:24:59","52.9","45.9","76.8","29.84","274","3","8.4","0.00","0.00"
"22:29:57","53","46","77","29.85","296","2.8","6.9","0.00","0.00"
"22:34:56","53","46","77.1","29.85","295","1.8","8.4","0.00","0.00"
"22:39:59","52.9","46.2","77.9","29.85","327","2.5","10.8","0.00","0.00"
"22:44:57","52.8","46","77.7","29.85","340","2.2","8.4","0.00","0.00"
"22:49:58","52.8","46","77.6","29.85","334","2.4","10.8","0.00","0.00"
"22:54:56","53","46","77","29.85","326","4.1","13.2","0.00","0.00"
"22:59:59","53","45.9","76.8","29.86","308","2.6","8.4","0.00","0.00"
"23:04:57","53","45.7","76.2","29.86","278","3","8.1","0.00","0.00"
"23:09:57","53.1","45.7","76","29.86","284","3.1","12","0.00","0.00"
"23:14:56","52.9","45.6","76.2","29.86","321","2.6","8.4","0.00","0.00"
"23:19:59","52.8","45.4","76","29.86","290","2.1","4.8","0.00","0.00"
"23:24:57","52.6","45.2","76","29.86","267","2.1","8.4","0.00","0.00"
"23:29:59","52.5","45.3","76.2","29.86","294","2.2","8.1","0.00","0.00"
"23:34:58","52.5","45.2","76","29.86","334","2.6","7.2","0.00","0.00"
"23:39:57","52.5","45.2","76.1","29.86","321","2.3","8.4","0.00","0.00"
"23:44:59","52.4","45.3","76.5","29.86","319","2.7","10.8","0.00","0.00"
"23:49:57","52.3","45.3","77","29.86","292","2.3","8.1","0.00","0.00"
